This is the latest recevied weather packets stored in our database for station/object KC0RPY. If no packets are shown the sender has not sent any weather packets the latest 10 day(s).
| Time | Temp. | Humidity | Pressure | Rain* | Wind** | Luminosity | Snow |
|---|---|---|---|---|---|---|---|
| 1777906939 | 21.11° C | 54% | 1005.2 hPa | 0 mm | - | 603 W/m² | - |
| 1777906637 | 21.11° C | 54% | 1004.9 hPa | 0 mm | - | 596 W/m² | - |
| 1777906332 | 21.11° C | 55% | 1004.9 hPa | 0 mm | - | 572 W/m² | - |
| 1777906029 | 20.56° C | 55% | 1004.9 hPa | 0 mm | - | 567 W/m² | - |
| 1777905726 | 20.56° C | 56% | 1004.9 hPa | 0 mm | - | 497 W/m² | - |
| 1777905423 | 20.56° C | 56% | 1004.9 hPa | 0 mm | - | 409 W/m² | - |
| 1777905121 | 20° C | 56% | 1004.4 hPa | 0 mm | - | 526 W/m² | - |
| 1777904817 | 20.56° C | 56% | 1005.2 hPa | 0 mm | - | 212 W/m² | - |
| 1777904515 | 20° C | 57% | 1004.9 hPa | 0 mm | - | 373 W/m² | - |
| 1777904211 | 20° C | 57% | 1005.2 hPa | 0 mm | - | 427 W/m² | - |
| 1777903908 | 20° C | 58% | 1004.9 hPa | 0 mm | - | 380 W/m² | - |
| 1777903605 | 20° C | 58% | 1005.2 hPa | 0 mm | - | 333 W/m² | - |
| 1777903300 | 19.44° C | 58% | 1004.9 hPa | 0 mm | - | 281 W/m² | - |
| 1777902998 | 18.89° C | 58% | 1004.9 hPa | 0 mm | - | 289 W/m² | - |
| 1777902694 | 18.89° C | 58% | 1004.9 hPa | 0 mm | - | 127 W/m² | - |
| 1777902392 | 18.89° C | 59% | 1004.9 hPa | 0 mm | - | 152 W/m² | - |
| 1777902088 | 18.89° C | 58% | 1004.9 hPa | 0 mm | - | 182 W/m² | - |
| 1777901787 | 18.89° C | 58% | 1004.9 hPa | 0 mm | - | 140 W/m² | - |
| 1777901483 | 18.89° C | 58% | 1004.9 hPa | 0 mm | - | 254 W/m² | - |
| 1777901181 | 18.33° C | 59% | 1004.9 hPa | 0 mm | - | 135 W/m² | - |
| 1777900879 | 18.89° C | 58% | 1004.9 hPa | 0 mm | - | 108 W/m² | - |
| 1777900576 | 18.89° C | 58% | 1004.4 hPa | 0 mm | - | 115 W/m² | - |
| 1777900272 | 18.89° C | 58% | 1004.4 hPa | 0 mm | - | 121 W/m² | - |
| 1777899969 | 18.33° C | 59% | 1004.4 hPa | 0 mm | - | 116 W/m² | - |
| 1777899666 | 18.33° C | 59% | 1004.4 hPa | 0 mm | - | 91 W/m² | - |
* Rain latest hour (hover to see other rain measurements)
** Current wind speed in m/s (hover to see current wind gust speed)